QPF
0.02 0.03 0.04 0.03 0.03 0.04 0.04 0.04 0.04 0.04 0.06 0.06 0.03 0.02 0.04 0.05 0.05 0.02 0.02 0.02 0.01 0.01 0.00 0.01 0.01 0.01 0.01 0.01 0.01 0.01 0.01 0.02 0.01 0.01 0.00 0.00 0.00 0.00 0.00 0.00 0.00 0.00 0.00 0.00
0.01 0.02 0.02 0.02 0.02 0.03 0.04 0.03 0.03 0.04 0.06 0.05 0.05 0.03 0.03 0.03 0.04 0.03 0.01 0.01 0.01 0.00 0.00 0.00 0.00 0.00 0.01 0.01 0.01 0.00 0.00 0.00 0.00 0.00 0.00 0.00 0.00 0.00 0.00 0.00 0.00 0.00 0.00 0.00
0.01 0.01 0.01 0.02 0.02 0.03 0.04 0.04 0.05 0.05 0.04 0.04 0.05 0.06 0.04 0.03 0.03 0.03 0.02 0.01 0.01 0.00 0.00 0.00 0.00 0.00 0.00 0.00 0.00 0.01 0.01 0.00 0.00 0.01 0.00 0.00 0.00 0.00 0.00 0.00 0.00 0.00 0.00 0.00
0.01 0.01 0.01 0.02 0.02 0.03 0.03 0.03 0.03 0.03 0.03 0.04 0.03 0.03 0.02 0.02 0.02 0.02 0.02 0.01 0.01 0.00 0.00 0.00 0.00 0.00 0.00 0.00 0.00 0.00 0.00 0.00 0.00 0.00 0.00 0.00 0.00 0.00 0.00 0.00 0.00 0.00 0.00 0.00
0.01 0.01 0.01 0.02 0.02 0.02 0.03 0.02 0.03 0.03 0.02 0.02 0.02 0.01 0.01 0.01 0.01 0.01 0.01 0.01 0.00 0.00 0.00 0.00 0.00 0.00 0.00 0.00 0.00 0.00 0.00 0.00 0.01 0.01 0.01 0.00 0.00 0.00 0.00 0.00 0.00 0.00 0.00 0.00
0.01 0.01 0.01 0.03 0.03 0.02 0.02 0.03 0.03 0.02 0.02 0.03 0.01 0.01 0.00 0.00 0.00 0.00 0.00 0.00 0.00 0.00 0.00 0.00 0.00 0.01 0.00 0.00 0.00 0.00 0.00 0.00 0.00 0.00 0.00 0.00 0.00 0.00 0.00 0.00 0.00 0.00 0.00 0.00
0.01 0.01 0.01 0.01 0.02 0.03 0.03 0.02 0.03 0.03 0.03 0.03 0.01 0.01 0.00 0.00 0.00 0.00 0.00 0.00 0.00 0.01 0.01 0.00 0.00 0.00 0.00 0.00 0.00 0.00 0.00 0.00 0.00 0.00 0.00 0.00 0.00 0.00 0.00 0.00 0.00 0.00 0.00 0.00
0.01 0.01 0.01 0.01 0.03 0.02 0.03 0.03 0.02 0.02 0.04 0.03 0.01 0.01 0.00 0.00 0.00 0.00 0.00 0.00 0.00 0.01 0.02 0.00 0.00 0.00 0.00 0.00 0.00 0.00 0.00 0.00 0.00 0.00 0.00 0.00 0.00 0.00 0.00 0.00 0.00 0.00 0.00 0.00
0.00 0.00 0.00 0.01 0.02 0.03 0.03 0.03 0.02 0.02 0.02 0.02 0.01 0.01 0.00 0.00 0.00 0.00 0.00 0.01 0.01 0.01 0.02 0.01 0.00 0.00 0.00 0.00 0.00 0.00 0.00 0.01 0.01 0.00 0.00 0.00 0.00 0.00 0.00 0.00 0.00 0.00 0.00 0.00
0.00 0.01 0.01 0.01 0.02 0.03 0.02 0.02 0.02 0.03 0.02 0.02 0.01 0.01 0.01 0.00 0.00 0.00 0.01 0.01 0.01 0.01 0.01 0.01 0.00 0.00 0.00 0.00 0.00 0.00 0.01 0.01 0.01 0.01 0.00 0.00 0.00 0.00 0.01 0.00 0.00 0.00 0.00 0.00
0.00 0.01 0.01 0.01 0.02 0.02 0.01 0.02 0.02 0.02 0.03 0.03 0.02 0.01 0.01 0.00 0.00 0.00 0.01 0.00 0.00 0.01 0.00 0.01 0.01 0.00 0.00 0.00 0.00 0.01 0.01 0.01 0.01 0.01 0.00 0.00 0.01 0.00 0.01 0.01 0.00 0.00 0.00 0.00
0.00 0.00 0.01 0.01 0.01 0.01 0.02 0.02 0.02 0.03 0.03 0.04 0.03 0.02 0.01 0.00 0.00 0.00 0.01 0.01 0.01 0.01 0.00 0.01 0.01 0.00 0.00 0.00 0.00 0.00 0.01 0.01 0.01 0.01 0.00 0.00 0.00 0.00 0.00 0.00 0.00 0.00 0.00 0.00
0.01 0.00 0.01 0.01 0.01 0.01 0.02 0.02 0.02 0.02 0.02 0.02 0.02 0.03 0.02 0.01 0.00 0.00 0.01 0.01 0.01 0.01 0.01 0.00 0.01 0.01 0.00 0.00 0.00 0.00 0.01 0.01 0.01 0.01 0.00 0.00 0.00 0.00 0.00 0.00 0.00 0.00 0.00 0.01
0.01 0.00 0.00 0.01 0.01 0.01 0.01 0.02 0.02 0.02 0.02 0.02 0.02 0.03 0.02 0.01 0.00 0.00 0.00 0.01 0.01 0.01 0.01 0.01 0.01 0.01 0.00 0.00 0.01 0.00 0.01 0.01 0.00 0.00 0.00 0.00 0.00 0.00 0.01 0.01 0.00 0.00 0.00 0.00
0.01 0.00 0.00 0.00 0.01 0.02 0.02 0.02 0.02 0.02 0.01 0.02 0.02 0.02 0.02 0.01 0.00 0.00 0.00 0.01 0.01 0.01 0.01 0.01 0.01 0.02 0.01 0.00 0.00 0.00 0.00 0.00 0.00 0.00 0.00 0.00 0.00 0.00 0.00 0.00 0.00 0.00 0.00 0.00
0.01 0.01 0.00 0.00 0.00 0.00 0.01 0.01 0.01 0.01 0.01 0.02 0.02 0.01 0.01 0.01 0.01 0.01 0.01 0.01 0.01 0.01 0.01 0.01 0.01 0.01 0.01 0.00 0.00 0.00 0.00 0.00 0.00 0.00 0.00 0.00 0.00 0.00 0.00 0.00 0.00 0.01 0.01 0.01
0.01 0.01 0.01 0.00 0.00 0.00 0.00 0.00 0.01 0.01 0.01 0.01 0.01 0.01 0.01 0.02 0.01 0.01 0.01 0.01 0.01 0.02 0.02 0.02 0.01 0.01 0.01 0.00 0.00 0.00 0.00 0.00 0.01 0.00 0.00 0.00 0.00 0.00 0.00 0.01 0.01 0.01 0.02 0.02
0.00 0.00 0.01 0.01 0.01 0.00 0.00 0.00 0.00 0.00 0.00 0.00 0.01 0.01 0.01 0.02 0.02 0.02 0.02 0.01 0.02 0.02 0.02 0.03 0.03 0.02 0.01 0.01 0.01 0.01 0.00 0.00 0.00 0.00 0.01 0.00 0.01 0.01 0.01 0.01 0.02 0.02 0.03 0.03
0.00 0.01 0.01 0.01 0.01 0.01 0.00 0.00 0.00 0.00 0.00 0.00 0.00 0.01 0.01 0.01 0.01 0.01 0.02 0.01 0.02 0.02 0.03 0.03 0.03 0.03 0.02 0.02 0.01 0.00 0.00 0.00 0.00 0.00 0.01 0.01 0.01 0.01 0.02 0.02 0.02 0.02 0.02 0.02
0.00 0.01 0.01 0.00 0.00 0.00 0.00 0.00 0.00 0.00 0.00 0.00 0.00 0.01 0.01 0.01 0.01 0.01 0.01 0.01 0.02 0.02 0.03 0.03 0.02 0.02 0.03 0.03 0.01 0.00 0.00 0.00 0.00 0.00 0.00 0.01 0.02 0.02 0.02 0.02 0.02 0.02 0.01 0.01
0.00 0.00 0.00 0.00 0.00 0.00 0.00 0.00 0.00 0.00 0.00 0.00 0.00 0.01 0.00 0.00 0.01 0.01 0.01 0.01 0.01 0.02 0.03 0.02 0.02 0.02 0.02 0.03 0.02 0.01 0.00 0.00 0.00 0.00 0.01 0.01 0.02 0.02 0.02 0.02 0.02 0.02 0.02 0.01
0.00 0.00 0.00 0.00 0.00 0.00 0.00 0.00 0.00 0.01 0.00 0.00 0.00 0.00 0.00 0.00 0.00 0.01 0.01 0.02 0.02 0.02 0.03 0.02 0.01 0.02 0.02 0.02 0.01 0.01 0.01 0.00 0.01 0.00 0.01 0.01 0.01 0.02 0.01 0.01 0.02 0.02 0.02 0.01
0.01 0.01 0.01 0.01 0.00 0.00 0.00 0.00 0.00 0.00 0.00 0.00 0.00 0.00 0.00 0.00 0.00 0.01 0.01 0.01 0.01 0.02 0.02 0.02 0.01 0.01 0.01 0.01 0.02 0.02 0.01 0.00 0.00 0.00 0.00 0.00 0.01 0.01 0.01 0.01 0.01 0.01 0.02 0.01
0.00 0.00 0.01 0.01 0.00 0.00 0.00 0.00 0.00 0.01 0.01 0.00 0.00 0.00 0.00 0.00 0.00 0.01 0.01 0.02 0.02 0.02 0.02 0.02 0.02 0.02 0.01 0.02 0.02 0.03 0.02 0.01 0.00 0.00 0.00 0.00 0.00 0.01 0.01 0.01 0.01 0.01 0.01 0.01
0.00 0.01 0.01 0.01 0.00 0.01 0.00 0.00 0.00 0.00 0.00 0.00 0.00 0.00 0.00 0.00 0.00 0.00 0.01 0.02 0.03 0.02 0.03 0.03 0.03 0.03 0.03 0.03 0.04 0.05 0.04 0.03 0.01 0.01 0.00 0.00 0.00 0.00 0.00 0.00 0.00 0.00 0.00 0.00
0.01 0.01 0.01 0.01 0.00 0.01 0.01 0.01 0.00 0.00 0.00 0.00 0.00 0.00 0.00 0.00 0.00 0.00 0.00 0.00 0.01 0.01 0.01 0.02 0.02 0.02 0.01 0.02 0.02 0.02 0.03 0.03 0.02 0.02 0.01 0.01 0.01 0.01 0.01 0.01 0.01 0.00 0.00 0.00
MSLP
1016.89 1017.36 1017.73 1018.04 1018.34 1018.71 1019.17 1019.74 1020.38 1021.02 1021.58 1021.98 1022.17 1022.12 1021.86 1021.44 1020.98 1020.54 1020.22 1020.07 1020.08 1020.22 1020.45 1020.69 1020.86 1020.94 1020.91 1020.80 1020.65 1020.51 1020.46 1020.50 1020.65 1020.88 1021.14 1021.37 1021.53 1021.56 1021.45 1021.23 1020.92 1020.59 1020.29 1020.06
1017.65 1018.06 1018.35 1018.57 1018.81 1019.12 1019.57 1020.15 1020.83 1021.51 1022.11 1022.53 1022.70 1022.61 1022.29 1021.80 1021.25 1020.75 1020.39 1020.22 1020.25 1020.44 1020.71 1021.00 1021.21 1021.30 1021.26 1021.12 1020.92 1020.74 1020.64 1020.65 1020.78 1021.02 1021.30 1021.57 1021.76 1021.82 1021.75 1021.55 1021.27 1020.96 1020.66 1020.43
1018.29 1018.65 1018.86 1019.02 1019.20 1019.48 1019.92 1020.51 1021.20 1021.91 1022.52 1022.94 1023.10 1022.97 1022.58 1022.03 1021.41 1020.87 1020.47 1020.30 1020.34 1020.56 1020.88 1021.21 1021.45 1021.57 1021.53 1021.38 1021.16 1020.94 1020.80 1020.78 1020.89 1021.11 1021.39 1021.67 1021.88 1021.99 1021.96 1021.81 1021.58 1021.31 1021.06 1020.87
1018.81 1019.11 1019.27 1019.38 1019.52 1019.78 1020.21 1020.81 1021.51 1022.23 1022.85 1023.25 1023.38 1023.22 1022.78 1022.17 1021.51 1020.92 1020.50 1020.30 1020.35 1020.58 1020.93 1021.29 1021.57 1021.72 1021.71 1021.56 1021.34 1021.11 1020.94 1020.89 1020.97 1021.16 1021.42 1021.69 1021.92 1022.05 1022.06 1021.98 1021.82 1021.62 1021.44 1021.30
1019.22 1019.47 1019.58 1019.66 1019.79 1020.04 1020.47 1021.08 1021.79 1022.51 1023.12 1023.51 1023.62 1023.41 1022.94 1022.29 1021.58 1020.95 1020.49 1020.27 1020.30 1020.54 1020.89 1021.27 1021.59 1021.77 1021.79 1021.68 1021.47 1021.25 1021.07 1021.00 1021.04 1021.19 1021.41 1021.66 1021.87 1022.02 1022.08 1022.05 1021.97 1021.86 1021.76 1021.69
1019.55 1019.74 1019.83 1019.88 1020.01 1020.28 1020.72 1021.34 1022.06 1022.78 1023.38 1023.75 1023.83 1023.60 1023.10 1022.41 1021.67 1021.00 1020.51 1020.25 1020.25 1020.46 1020.80 1021.19 1021.52 1021.74 1021.81 1021.74 1021.57 1021.37 1021.20 1021.11 1021.12 1021.22 1021.39 1021.59 1021.78 1021.92 1022.01 1022.03 1022.02 1022.00 1021.98 1021.98
1019.81 1019.95 1020.01 1020.07 1020.21 1020.50 1020.97 1021.60 1022.33 1023.04 1023.63 1024.00 1024.06 1023.82 1023.30 1022.59 1021.82 1021.12 1020.59 1020.29 1020.24 1020.40 1020.72 1021.10 1021.44 1021.69 1021.80 1021.79 1021.67 1021.51 1021.36 1021.25 1021.23 1021.28 1021.39 1021.54 1021.68 1021.81 1021.90 1021.95 1021.99 1022.03 1022.07 1022.14
1019.99 1020.10 1020.15 1020.21 1020.38 1020.70 1021.20 1021.85 1022.59 1023.31 1023.89 1024.24 1024.30 1024.05 1023.54 1022.83 1022.06 1021.34 1020.77 1020.43 1020.33 1020.44 1020.72 1021.07 1021.41 1021.68 1021.84 1021.88 1021.82 1021.70 1021.57 1021.46 1021.41 1021.41 1021.46 1021.54 1021.63 1021.72 1021.79 1021.85 1021.91 1021.99 1022.07 1022.17
1020.08 1020.16 1020.22 1020.31 1020.51 1020.87 1021.41 1022.08 1022.83 1023.54 1024.12 1024.47 1024.54 1024.31 1023.81 1023.13 1022.38 1021.67 1021.09 1020.72 1020.57 1020.63 1020.86 1021.18 1021.50 1021.78 1021.97 1022.06 1022.05 1021.97 1021.87 1021.77 1021.69 1021.65 1021.63 1021.65 1021.68 1021.72 1021.76 1021.80 1021.86 1021.94 1022.04 1022.15
1020.06 1020.13 1020.21 1020.34 1020.59 1021.00 1021.57 1022.26 1023.01 1023.72 1024.30 1024.66 1024.74 1024.55 1024.11 1023.49 1022.79 1022.11 1021.56 1021.18 1021.00 1021.02 1021.20 1021.48 1021.78 1022.05 1022.26 1022.38 1022.41 1022.38 1022.30 1022.20 1022.11 1022.03 1021.97 1021.92 1021.89 1021.88 1021.87 1021.88 1021.92 1021.97 1022.06 1022.15
1019.91 1020.00 1020.11 1020.30 1020.61 1021.07 1021.67 1022.38 1023.13 1023.83 1024.40 1024.77 1024.89 1024.76 1024.40 1023.87 1023.26 1022.67 1022.17 1021.81 1021.64 1021.63 1021.77 1022.00 1022.27 1022.53 1022.74 1022.88 1022.94 1022.94 1022.88 1022.80 1022.69 1022.59 1022.49 1022.40 1022.32 1022.25 1022.21 1022.18 1022.17 1022.19 1022.24 1022.30
1019.66 1019.80 1019.97 1020.23 1020.60 1021.10 1021.73 1022.43 1023.16 1023.85 1024.42 1024.80 1024.97 1024.92 1024.66 1024.26 1023.79 1023.31 1022.90 1022.60 1022.45 1022.44 1022.56 1022.75 1022.99 1023.22 1023.42 1023.56 1023.64 1023.66 1023.62 1023.55 1023.45 1023.33 1023.21 1023.09 1022.98 1022.88 1022.79 1022.72 1022.68 1022.66 1022.66 1022.67
1019.40 1019.60 1019.85 1020.18 1020.60 1021.14 1021.76 1022.45 1023.15 1023.80 1024.35 1024.75 1024.98 1025.02 1024.89 1024.64 1024.33 1024.00 1023.71 1023.51 1023.41 1023.42 1023.52 1023.69 1023.89 1024.09 1024.27 1024.40 1024.49 1024.52 1024.50 1024.44 1024.35 1024.24 1024.11 1023.98 1023.85 1023.73 1023.63 1023.53 1023.46 1023.40 1023.35 1023.31
1019.23 1019.51 1019.83 1020.22 1020.68 1021.22 1021.82 1022.46 1023.10 1023.71 1024.23 1024.63 1024.91 1025.05 1025.07 1024.99 1024.85 1024.70 1024.56 1024.47 1024.45 1024.49 1024.59 1024.74 1024.90 1025.07 1025.23 1025.35 1025.43 1025.47 1025.47 1025.43 1025.36 1025.26 1025.15 1025.03 1024.91 1024.79 1024.67 1024.57 1024.47 1024.39 1024.30 1024.23
1019.26 1019.61 1020.00 1020.42 1020.89 1021.40 1021.94 1022.50 1023.06 1023.59 1024.06 1024.47 1024.79 1025.03 1025.19 1025.28 1025.33 1025.36 1025.38 1025.42 1025.49 1025.57 1025.69 1025.82 1025.96 1026.10 1026.23 1026.34 1026.42 1026.47 1026.49 1026.47 1026.43 1026.36 1026.27 1026.17 1026.07 1025.96 1025.86 1025.76 1025.66 1025.56 1025.45 1025.34
1019.58 1019.98 1020.39 1020.82 1021.25 1021.69 1022.14 1022.58 1023.03 1023.46 1023.87 1024.25 1024.61 1024.94 1025.24 1025.50 1025.73 1025.94 1026.12 1026.29 1026.45 1026.59 1026.73 1026.86 1026.98 1027.10 1027.21 1027.31 1027.39 1027.45 1027.49 1027.51 1027.49 1027.45 1027.40 1027.33 1027.25 1027.17 1027.09 1027.00 1026.91 1026.81 1026.69 1026.55
1020.19 1020.61 1021.02 1021.40 1021.75 1022.08 1022.39 1022.69 1022.99 1023.30 1023.64 1023.99 1024.38 1024.78 1025.20 1025.61 1026.01 1026.39 1026.73 1027.02 1027.27 1027.47 1027.64 1027.78 1027.90 1028.00 1028.11 1028.21 1028.30 1028.38 1028.45 1028.49 1028.51 1028.50 1028.48 1028.44 1028.39 1028.33 1028.27 1028.20 1028.12 1028.03 1027.91 1027.76
1021.05 1021.45 1021.80 1022.08 1022.31 1022.49 1022.64 1022.77 1022.92 1023.11 1023.35 1023.67 1024.07 1024.54 1025.06 1025.61 1026.16 1026.69 1027.16 1027.57 1027.91 1028.18 1028.38 1028.54 1028.67 1028.79 1028.90 1029.01 1029.12 1029.22 1029.31 1029.39 1029.44 1029.46 1029.46 1029.44 1029.42 1029.38 1029.34 1029.29 1029.22 1029.13 1029.02 1028.86
1022.00 1022.34 1022.59 1022.75 1022.83 1022.84 1022.80 1022.77 1022.76 1022.83 1022.99 1023.28 1023.69 1024.21 1024.82 1025.49 1026.18 1026.83 1027.43 1027.95 1028.37 1028.71 1028.96 1029.15 1029.31 1029.44 1029.58 1029.71 1029.85 1029.98 1030.10 1030.20 1030.28 1030.32 1030.34 1030.33 1030.31 1030.28 1030.25 1030.21 1030.15 1030.07 1029.96 1029.80
1022.88 1023.12 1023.25 1023.27 1023.18 1023.02 1022.82 1022.63 1022.49 1022.46 1022.56 1022.82 1023.25 1023.82 1024.51 1025.28 1026.08 1026.85 1027.55 1028.17 1028.68 1029.09 1029.40 1029.64 1029.84 1030.01 1030.18 1030.34 1030.51 1030.67 1030.82 1030.94 1031.03 1031.08 1031.11 1031.10 1031.08 1031.05 1031.01 1030.97 1030.91 1030.83 1030.72 1030.56
1023.52 1023.65 1023.65 1023.52 1023.29 1022.98 1022.65 1022.34 1022.11 1022.01 1022.08 1022.33 1022.78 1023.41 1024.17 1025.02 1025.91 1026.78 1027.59 1028.29 1028.89 1029.37 1029.75 1030.05 1030.30 1030.52 1030.73 1030.93 1031.13 1031.32 1031.49 1031.62 1031.72 1031.77 1031.79 1031.77 1031.74 1031.69 1031.64 1031.59 1031.52 1031.44 1031.32 1031.16
1023.82 1023.83 1023.71 1023.47 1023.13 1022.72 1022.30 1021.93 1021.65 1021.53 1021.60 1021.87 1022.35 1023.03 1023.85 1024.78 1025.74 1026.69 1027.58 1028.37 1029.05 1029.61 1030.06 1030.43 1030.74 1031.01 1031.26 1031.50 1031.73 1031.94 1032.11 1032.25 1032.35 1032.39 1032.40 1032.37 1032.31 1032.25 1032.18 1032.11 1032.03 1031.93 1031.80 1031.63
1023.74 1023.66 1023.45 1023.14 1022.73 1022.29 1021.85 1021.47 1021.21 1021.11 1021.21 1021.52 1022.04 1022.76 1023.63 1024.61 1025.64 1026.65 1027.60 1028.47 1029.22 1029.85 1030.37 1030.81 1031.17 1031.50 1031.79 1032.05 1032.30 1032.52 1032.70 1032.84 1032.93 1032.96 1032.95 1032.91 1032.84 1032.75 1032.66 1032.57 1032.47 1032.35 1032.20 1032.02
1023.34 1023.20 1022.95 1022.61 1022.21 1021.80 1021.40 1021.08 1020.88 1020.84 1020.99 1021.35 1021.92 1022.67 1023.58 1024.59 1025.64 1026.70 1027.70 1028.61 1029.42 1030.12 1030.71 1031.20 1031.62 1031.98 1032.30 1032.58 1032.84 1033.06 1033.24 1033.36 1033.44 1033.47 1033.45 1033.40 1033.32 1033.22 1033.11 1033.00 1032.88 1032.73 1032.56 1032.35
1022.74 1022.57 1022.32 1022.02 1021.69 1021.36 1021.06 1020.85 1020.75 1020.80 1021.02 1021.44 1022.04 1022.81 1023.72 1024.74 1025.80 1026.86 1027.88 1028.83 1029.68 1030.43 1031.06 1031.60 1032.05 1032.44 1032.77 1033.06 1033.32 1033.52 1033.69 1033.81 1033.88 1033.91 1033.89 1033.84 1033.76 1033.66 1033.54 1033.41 1033.26 1033.09 1032.88 1032.63
1022.07 1021.90 1021.71 1021.49 1021.27 1021.08 1020.92 1020.85 1020.88 1021.03 1021.33 1021.79 1022.41 1023.18 1024.07 1025.06 1026.10 1027.15 1028.16 1029.12 1029.99 1030.75 1031.42 1031.98 1032.45 1032.85 1033.18 1033.46 1033.70 1033.89 1034.04 1034.16 1034.23 1034.26 1034.25 1034.21 1034.14 1034.05 1033.93 1033.79 1033.61 1033.40 1033.15 1032.86
Thickness
5709 5698 5690 5694 5700 5701 5698 5694 5692 5698 5709 5707 5702 5704 5710 5714 5714 5713 5714 5716 5717 5721 5728 5730 5731 5731 5730 5729 5729 5728 5726 5725 5724 5722 5720 5719 5718 5718 5718 5718 5718 5718 5718 5718
5695 5690 5700 5705 5704 5702 5697 5691 5691 5697 5707 5704 5698 5700 5708 5711 5712 5715 5715 5715 5718 5721 5724 5726 5728 5728 5727 5727 5727 5726 5725 5724 5723 5722 5720 5718 5716 5715 5715 5715 5715 5715 5715 5715
5690 5696 5707 5703 5699 5696 5694 5690 5691 5692 5697 5699 5695 5692 5701 5709 5713 5715 5717 5719 5720 5721 5722 5723 5725 5725 5726 5726 5726 5726 5724 5723 5722 5720 5718 5716 5714 5713 5712 5712 5712 5712 5712 5712
5693 5702 5703 5699 5697 5696 5688 5700 5699 5694 5686 5679 5687 5673 5692 5702 5706 5711 5714 5716 5719 5723 5725 5725 5725 5725 5726 5727 5727 5725 5724 5722 5720 5719 5717 5714 5711 5708 5709 5709 5709 5709 5709 5709
5692 5700 5698 5695 5698 5700 5695 5702 5698 5692 5684 5677 5680 5673 5684 5698 5700 5709 5715 5719 5722 5724 5726 5726 5727 5728 5728 5727 5726 5724 5722 5720 5719 5717 5715 5713 5710 5709 5707 5707 5707 5706 5706 5706
5697 5705 5704 5701 5705 5705 5701 5694 5688 5681 5675 5666 5675 5671 5678 5693 5705 5713 5719 5722 5724 5725 5726 5727 5728 5728 5726 5725 5724 5722 5720 5718 5717 5715 5714 5712 5710 5707 5705 5704 5703 5703 5703 5703
5689 5697 5704 5707 5697 5697 5694 5677 5662 5660 5656 5661 5677 5674 5684 5709 5718 5721 5723 5723 5726 5726 5725 5724 5724 5724 5723 5723 5722 5721 5719 5717 5716 5714 5712 5711 5709 5707 5706 5704 5702 5701 5700 5700
5676 5677 5696 5703 5698 5690 5687 5680 5662 5653 5652 5659 5674 5673 5695 5718 5724 5727 5727 5727 5726 5725 5725 5725 5725 5724 5723 5722 5721 5719 5718 5716 5714 5713 5712 5710 5709 5707 5705 5704 5702 5700 5699 5699
5676 5678 5701 5706 5706 5698 5684 5678 5680 5666 5662 5657 5666 5681 5701 5718 5721 5723 5724 5723 5723 5724 5725 5725 5724 5724 5723 5722 5721 5720 5718 5716 5714 5712 5711 5709 5708 5707 5705 5704 5702 5700 5698 5697
5689 5680 5694 5702 5704 5700 5694 5684 5671 5664 5654 5651 5665 5674 5683 5704 5711 5717 5718 5720 5722 5724 5724 5724 5723 5723 5722 5722 5722 5720 5718 5715 5714 5712 5710 5709 5707 5706 5704 5702 5700 5698 5697 5696
5695 5681 5684 5692 5690 5688 5685 5681 5675 5665 5663 5654 5655 5671 5702 5706 5712 5714 5717 5720 5722 5722 5723 5723 5722 5722 5721 5720 5719 5717 5715 5713 5711 5710 5708 5707 5705 5704 5702 5700 5698 5697 5695 5693
5693 5680 5673 5684 5699 5702 5695 5688 5678 5667 5662 5661 5658 5673 5712 5712 5715 5716 5717 5720 5722 5722 5722 5722 5720 5719 5717 5716 5715 5714 5713 5711 5709 5708 5706 5704 5702 5701 5699 5697 5696 5694 5692 5691
5693 5679 5667 5672 5681 5690 5690 5689 5684 5676 5666 5659 5658 5677 5710 5711 5713 5716 5717 5718 5719 5720 5720 5719 5717 5715 5714 5713 5713 5712 5710 5709 5708 5706 5703 5701 5699 5697 5696 5694 5693 5691 5689 5687
5699 5680 5674 5670 5677 5685 5685 5688 5685 5677 5666 5663 5669 5683 5700 5706 5709 5713 5716 5717 5718 5718 5717 5716 5714 5713 5712 5712 5711 5710 5709 5708 5706 5703 5700 5698 5697 5695 5693 5692 5690 5688 5686 5684
5695 5680 5683 5686 5692 5691 5690 5690 5687 5682 5680 5674 5681 5685 5698 5705 5709 5712 5715 5715 5715 5715 5715 5714 5712 5711 5710 5709 5709 5708 5707 5705 5704 5701 5698 5696 5695 5692 5690 5688 5686 5684 5682 5680
5688 5681 5681 5682 5689 5688 5687 5690 5689 5687 5687 5684 5686 5690 5705 5709 5710 5710 5711 5712 5712 5713 5714 5713 5712 5710 5709 5708 5707 5706 5704 5703 5702 5699 5696 5694 5691 5689 5686 5684 5682 5680 5677 5675
5677 5675 5670 5668 5680 5682 5675 5690 5691 5690 5692 5690 5686 5696 5706 5705 5707 5708 5709 5710 5710 5712 5712 5711 5710 5710 5709 5708 5707 5705 5703 5701 5699 5696 5693 5691 5688 5685 5683 5681 5678 5675 5672 5670
5674 5668 5661 5661 5669 5660 5683 5703 5701 5696 5697 5698 5699 5702 5705 5706 5708 5710 5711 5710 5709 5710 5710 5710 5709 5708 5707 5707 5705 5703 5701 5698 5695 5692 5690 5688 5685 5682 5679 5676 5674 5671 5668 5665
5677 5669 5657 5652 5654 5663 5686 5699 5699 5694 5694 5702 5700 5702 5703 5705 5705 5704 5709 5710 5709 5709 5709 5709 5708 5707 5705 5703 5702 5699 5696 5693 5691 5688 5686 5684 5682 5678 5675 5672 5670 5667 5664 5661
5671 5669 5657 5650 5652 5655 5681 5702 5707 5699 5687 5703 5703 5701 5700 5699 5689 5695 5707 5708 5707 5707 5706 5705 5704 5703 5701 5699 5698 5695 5691 5689 5687 5685 5684 5682 5679 5675 5671 5669 5666 5663 5660 5657
5659 5655 5651 5648 5650 5662 5690 5701 5701 5678 5685 5704 5703 5701 5699 5696 5697 5702 5705 5704 5704 5702 5701 5700 5699 5697 5695 5694 5693 5689 5687 5685 5685 5683 5680 5677 5675 5672 5668 5665 5661 5658 5655 5651
5656 5650 5647 5644 5647 5661 5694 5694 5689 5692 5702 5702 5701 5701 5699 5698 5699 5699 5699 5699 5698 5696 5696 5694 5692 5690 5689 5688 5687 5684 5682 5682 5681 5678 5675 5672 5670 5667 5664 5659 5655 5652 5648 5645
5656 5661 5659 5660 5667 5684 5691 5694 5699 5699 5697 5699 5698 5699 5698 5695 5694 5694 5693 5692 5691 5690 5689 5687 5685 5683 5682 5681 5681 5678 5677 5676 5675 5672 5669 5666 5663 5660 5657 5654 5649 5644 5641 5638
5655 5660 5659 5661 5672 5682 5687 5692 5694 5695 5695 5697 5697 5696 5694 5691 5689 5687 5686 5684 5684 5683 5682 5681 5679 5676 5675 5674 5674 5673 5672 5671 5668 5665 5662 5659 5656 5653 5649 5647 5643 5639 5635 5631
5655 5655 5654 5657 5669 5677 5684 5686 5688 5690 5691 5691 5691 5691 5689 5686 5683 5682 5680 5678 5677 5676 5675 5674 5672 5670 5668 5667 5666 5666 5665 5664 5661 5657 5655 5652 5649 5645 5641 5638 5635 5633 5630 5627
5650 5654 5654 5658 5669 5669 5675 5682 5684 5683 5684 5684 5684 5683 5682 5681 5679 5676 5674 5673 5671 5669 5667 5666 5664 5662 5661 5660 5659 5659 5658 5657 5654 5650 5646 5643 5639 5636 5633 5629 5626 5624 5622 5620